Atlanta Fulton, GA

4:13 PM EDT on June 25, 2017 (GMT -0400)
Fulton County-Brown

Weather History for KFTY - July, 2013

Change the Weather History Date:

Friday, July 26, 2013

  Actual Average Record
Temperature  
Mean Temperature 78 °F 80 °F  
Max Temperature 87 °F 89 °F 97 °F (2005)
Min Temperature 68 °F 71 °F 65 °F (2014)
Cooling Degree Days 13 15  
Month to date cooling degree days 342 384  
Year to date cooling degree days 879 934  
Since 1 June cooling degree days 716 734  
Growing Degree Days 26 (Base 50)    
Moisture  
Dew Point 70 °F    
Average Humidity 78    
Maximum Humidity 94    
Minimum Humidity 61    
Precipitation  
Precipitation 0.00 in 0.11 in 1.01 in (1984)
Month to date precipitation 12.67 4.51  
Year to date precipitation 29.22 30.13  
Sea Level Pressure  
Sea Level Pressure 30.01 in    
Wind  
Wind Speed 3 mph (SSE)    
Max Wind Speed 17 mph    
Max Gust Speed 32 mph    
Visibility 8 miles    
Events      
T = Trace of Precipitation, MM = Missing Value Source: NWS Daily Summary

Daily Weather History Graph

Daily Weather History Graph

Search for Another Location

Airport or City:

Trip Planner

Search our weather history database for the weather conditions in past years. The results will help you decide how hot, cold, wet, or windy it might be!

Date:

Astronomy

Jul. 26, 2013 Rise Set
Actual Time 6:45 AM EDT 8:42 PM EDT
Civil Twilight 6:18 AM EDT 9:10 PM EDT
Nautical Twilight 5:44 AM EDT 9:44 PM EDT
Astronomical Twilight 5:08 AM EDT 10:19 PM EDT
Moon 11:14 PM EDT (7/26) 11:05 AM EDT (7/26)
Length of Visible Light 14h 52m
Length of Day
13h 57m
Waning Gibbous, 80% of the Moon is Illuminated
Jul 26
Waning Gibbous
Jul 29
Last Quarter
Aug 6
New
Aug 14
First Quarter
Aug 20
Full

Hourly Weather History & Observations

Time (EDT) Temp. Heat Index Dew Point Humidity Pressure Visibility Wind Dir Wind Speed Gust Speed Precip Events Conditions
12:53 AM 71.1 °F - 66.9 °F 87% 29.99 in 10.0 mi Calm Calm - N/A   Clear
1:53 AM 70.0 °F - 66.9 °F 90% 29.99 in 9.0 mi Calm Calm - N/A   Clear
2:53 AM 70.0 °F - 66.9 °F 90% 29.98 in 8.0 mi Calm Calm - N/A   Clear
3:53 AM 68.0 °F - 66.0 °F 93% 29.99 in 8.0 mi Calm Calm - N/A   Clear
4:53 AM 69.1 °F - 66.9 °F 93% 29.99 in 7.0 mi Calm Calm - N/A   Clear
5:53 AM 69.1 °F - 66.0 °F 90% 30.01 in 8.0 mi Calm Calm - N/A   Clear
6:53 AM 68.0 °F - 66.0 °F 93% 30.02 in 6.0 mi Calm Calm - N/A   Clear
7:53 AM 70.0 °F - 66.9 °F 90% 30.03 in 7.0 mi Calm Calm - N/A   Partly Cloudy
8:39 AM 71.6 °F - 68.0 °F 88% 30.07 in 8.0 mi Calm Calm - N/A   Mostly Cloudy
8:46 AM 71.6 °F - 68.0 °F 88% 30.07 in 8.0 mi Calm Calm - N/A   Mostly Cloudy
8:53 AM 73.0 °F - 69.1 °F 87% 30.05 in 7.0 mi Calm Calm - N/A   Mostly Cloudy
9:53 AM 78.1 °F - 71.1 °F 79% 30.05 in 8.0 mi Variable 4.6 mph - N/A   Mostly Cloudy
10:20 AM 78.8 °F - 71.6 °F 78% 30.07 in 8.0 mi Variable 3.5 mph - N/A   Mostly Cloudy
10:34 AM 78.8 °F - 71.6 °F 78% 30.08 in 8.0 mi ESE 4.6 mph - N/A   Mostly Cloudy
10:53 AM 80.1 °F 83.8 °F 72.0 °F 76% 30.05 in 8.0 mi Calm Calm - N/A   Scattered Clouds
11:53 AM 82.0 °F 86.7 °F 72.0 °F 71% 30.04 in 8.0 mi Calm Calm - N/A   Scattered Clouds
12:00 PM 84.2 °F 90.9 °F 73.4 °F 70% 30.06 in 9.0 mi Variable 5.8 mph - N/A   Mostly Cloudy
12:53 PM 84.0 °F 89.6 °F 72.0 °F 67% 30.02 in 9.0 mi SW 3.5 mph - N/A   Mostly Cloudy
1:00 PM 84.2 °F 89.6 °F 71.6 °F 66% 30.05 in 9.0 mi SE 9.2 mph - N/A   Scattered Clouds
1:53 PM 84.0 °F 88.4 °F 70.0 °F 63% 30.01 in 10.0 mi SSW 3.5 mph - N/A   Scattered Clouds
2:53 PM 82.9 °F 85.8 °F 68.0 °F 60% 29.99 in 10.0 mi East 10.4 mph 32.2 mph N/A   Mostly Cloudy
3:53 PM 84.0 °F 87.8 °F 69.1 °F 61% 29.99 in 10.0 mi ENE 10.4 mph - N/A   Mostly Cloudy
4:53 PM 81.0 °F 84.4 °F 70.0 °F 69% 29.99 in 10.0 mi SSE 11.5 mph 21.9 mph N/A   Partly Cloudy
5:53 PM 81.0 °F 84.1 °F 69.1 °F 67% 29.98 in 10.0 mi SE 5.8 mph - N/A   Mostly Cloudy
6:53 PM 81.0 °F 84.1 °F 69.1 °F 67% 29.97 in 10.0 mi SSW 4.6 mph - N/A   Partly Cloudy
7:53 PM 81.0 °F 85.2 °F 72.0 °F 74% 29.98 in 10.0 mi SSW 3.5 mph - N/A   Mostly Cloudy
8:53 PM 80.1 °F 84.2 °F 73.0 °F 79% 29.98 in 8.0 mi Calm Calm - N/A   Clear
9:53 PM 75.9 °F - 73.0 °F 91% 29.97 in 6.0 mi Calm Calm - N/A   Clear
10:53 PM 75.0 °F - 72.0 °F 90% 29.99 in 6.0 mi Calm Calm - N/A   Scattered Clouds
11:53 PM 77.0 °F - 71.1 °F 82% 29.99 in 8.0 mi Variable 3.5 mph - N/A   Partly Cloudy